Regional Weather Roundup
Issued by NWS

Home | Current Version | Previous Version | Text Only | Print | Product List | Glossary Off
Versions: 1 2 3 4 5 6 7 8 9 10 11 12 13 14 15 16 17 18 19 20 21 22 23 24 25 26 27 28 29 30 31 32 33 34 35 36 37 38 39 40 41 42 43 44 45 46 47 48 49 50

000
ASUS45 KBOU 140207
RWRCO

WEATHER ROUNDUP FOR COLORADO
NATIONAL WEATHER SERVICE DENVER/BOULDER CO
700 PM MST SAT FEB 13 2016

NOTE: "FAIR" INDICATES FEW OR NO CLOUDS BELOW 12000 FEET WITH NO
SIGNIFICANT WEATHER AND/OR OBSTRUCTIONS TO VISIBILITY.

COZ001>005-013-030-031-140300-
...NORTHWEST COLORADO...

CITY           SKY/WX    TMP DP  RH WIND       PRES   REMARKS
CRAIG          FAIR      21  15  78 SW7       30.17R WCI  12
HAYDEN         FAIR      27  16  63 S7        30.16R WCI  19
MEEKER         FAIR      28  21  75 NE12      30.15F WCI  18
MOUNT WERNER   NOT AVBL
STEAMBOAT SPGS FAIR      30  20  65 SE5       30.16S WCI  25
WALDEN         FAIR      32  14  47 W17       30.16R WCI  21
$$

COZ006>008-011-140300-
...WEST CENTRAL VALLEYS...

CITY           SKY/WX    TMP DP  RH WIND       PRES   REMARKS
GRAND JUNCTION FAIR      32  30  92 E5        30.19R WCI  27
MONTROSE       FAIR      41  28  60 SE3       30.20F
EAGLE          CLEAR     43  21  42 S13       30.13F
RIFLE          FAIR      36  25  64 CALM      30.16F
DELTA          FAIR      42  33  70 NE8       30.18S
NUCLA          FAIR      46  27  46 SE5       30.22S
$$

COZ017>023-064>068-140300-
...SOUTHWEST COLORADO...

CITY           SKY/WX    TMP DP  RH WIND       PRES   REMARKS
DURANGO        FAIR      42  21  43 S3        30.16R
CORTEZ         FAIR      40  27  59 E3        30.19R
PAGOSA SPRINGS FAIR      37  21  52 CALM      30.20R
TELLURIDE      NOT AVBL
WOLF CREEK PAS FAIR      27  12  54 SW6       30.36S WCI  20
$$

COZ009-010-012-014-032>034-037-058>063-140300-
...CENTRAL COLORADO...

CITY           SKY/WX    TMP DP  RH WIND       PRES   REMARKS
ASPEN          FAIR      35  21  56 S6        30.18S WCI  30
BUENA VISTA    FAIR      42  11  27 NW6G16    30.17S
COPPER MTN     FAIR      28   9  43 W18G29    30.24F WCI  16
BERTHOUD PASS  FAIR      21  10  63 W43G62    30.11F WCI   0
COTTONWOOD PAS FAIR      39   3  22 W26G37    30.18F
GUNNISON       FAIR      18  10  73 NE5       30.26S WCI  11
KREMMLING      FAIR      21  14  73 CALM      30.13F
LEADVILLE      FAIR      30   9  41 NW7G16    30.19F WCI  23
MONARCH PASS   MOCLDY    27   5  39 MISG      30.40R
SALIDA         NOT AVBL
SUNLIGHT       FAIR      30  18  59 SW3       30.27F
WILKERSON PASS MOCLDY    28   7  40 W12G18    30.24F WCI  18
$$

COZ069>075-140300-
...SAN LUIS VALLEY/SANGRE DE CRISTO MOUNTAINS...

CITY           SKY/WX    TMP DP  RH WIND       PRES   REMARKS
ALAMOSA        FAIR      42  16  34 N16       30.16R
LA VETA PASS   FAIR      36   5  27 W13G29    30.21S
SAGUACHE       FAIR      43  10  26 NW20G29   30.17S
$$

COZ035-036-038>040-140300-
...NORTHERN COLORADO FRONT RANGE...

CITY           SKY/WX    TMP DP  RH WIND       PRES   REMARKS
DENVER INTL AP MOCLDY    53  17  24 SW17      29.92F
DMNS CITY PARK   N/A     57   8  14 W12G26    29.93S
AURORA         MOCLDY    51  13  21 SW6       29.95F
FRONT RANGE AP MOCLDY    50  19  29 SW18      29.93F
ERIE MUNI ARPT FAIR      55  14  19 W23G30    29.90F
BOULDER MUN AP FAIR      55  16  21 W30G43    29.94R
CENTENNIAL     MOCLDY    50  14  23 SW15      29.95F
BROOMFIELD     NOT AVBL
FORT COLLINS   FAIR      52  18  25 W14       29.96R
LONGMONT       FAIR      56  16  21 W21G29    29.91F
$$

COZ041-046-047-076>085-087-088-140300-
...PIKES PEAK/PALMER DIVIDE AND SOUTHERN FOOTHILLS...

CITY           SKY/WX    TMP DP  RH WIND       PRES   REMARKS
COLO. SPRINGS  MOCLDY    54   9  16 W16G26    30.04S
A. F. ACADEMY  FAIR      50  11  20 W22G33    29.99F
SCHRIEVER AFB  FAIR      47  13  25 W7G20     30.03F
ELLICOTT       LGT RAIN N/A N/A N/A W9        30.01F
FALCON         FAIR      45  12  26 W13       30.05F
FORT CARSON    FAIR      50  12  22 W10       30.02R
LIMON          FAIR      30  26  85 N8        29.97S WCI  22
MONUMENT HILL  FAIR      37  19  48 SW9       30.03F
TRINIDAD       FAIR      50  12  21 NW9       30.01R
$$

COZ042>045-048>051-090-091-140300-
...NORTHEAST COLORADO...

CITY           SKY/WX    TMP DP  RH WIND       PRES   REMARKS
GREELEY ARPT   FAIR      37  30  75 N10       29.95R
AKRON          FAIR      42  36  79 SW17      29.90R
BURLINGTON     FAIR      33  29  85 S15       29.94F WCI  23
WRAY           FAIR      35  32  87 CALM      29.91S
STERLING       FAIR      36  32  87 SW12      29.91R
HOLYOKE        FAIR      34  32  93 S7        29.91R WCI  28
FORT MORGAN    FAIR      34  31  91 W6        29.93R WCI  29
$$

COZ086-089-092>099-140300-
...SOUTHEAST COLORADO...

CITY           SKY/WX    TMP DP  RH WIND       PRES   REMARKS
PUEBLO         FAIR      55  28  35 VRB5      29.99R
LA JUNTA       FAIR      40  29  64 S7        29.97R
LAMAR          FAIR      36  28  73 E3        29.95R
SPRINGFIELD      N/A     43  33  68 N13       29.92R
$$



USA.gov is the U.S. government's official web portal to all federal, state and local government web resources and services.